Location: Lake Arresoe
(56.0000°N, 12.5000°E)
Time: 17:58:35
(UTC+02:00)

Resurs 1-4 Rocket - Pass Details

Date: 30 July 2021
Orbit: 799 x 815 km, 98.6° (Epoch: 23 September)

Event Time Altitude Azimuth Distance (km) Brightness Sun altitude
Rises 01:44:01 0° 22° (NNE) 3,350 6.9 -15.3°
Reaches altitude 10° 01:46:49 10° 36° (NE) 2,411 5.6 -15.2°
Maximum altitude 01:51:08 25° 90° (E) 1,602 3.7 -15.1°
Enters shadow 01:55:12 11° 143° (SE) 2,320 4.1 -15.0°
